Regional Weather Roundup
Issued by NWS Upton, NY

Current Version | Previous Version | Text Only | Print | Product List | Glossary Off
Versions: 1 2 3 4 5 6 7 8 9 10 11 12 13 14 15 16 17 18 19 20 21 22 23 24 25 26 27 28 29 30 31 32 33 34 35 36 37 38 39 40 41 42 43 44 45 46 47 48 49 50
000 ASUS41 KOKX 041604 RWROKX REGIONAL WEATHER ROUNDUP NATIONAL WEATHER SERVICE NEW YORK NY 1200 PM EDT FRI SEP 04 2015 NOTE: "FAIR" INDICATES FEW OR NO CLOUDS BELOW 12,000 FEET WITH NO SIGNIFICANT WEATHER AND/OR OBSTRUCTIONS TO VISIBILITY. NYZ071-072-176-178-NJZ106-104-041700- NEW YORK CITY METRO AREA CITY SKY/WX TMP DP RH WIND PRES REMARKS CENTRAL PARK CLOUDY 80 66 62 E12G17 30.12R LAGUARDIA APRT CLOUDY 79 67 66 NE16 30.08R KENNEDY INTL CLOUDY 79 68 69 E15 30.09R NEWARK/LIBERTY PTSUNNY 82 69 64 NE10 30.08R BRNX BOT. GARD N/A 75 66 73 E2 30.10F TETERBORO CLOUDY 80 66 62 NE14G20 30.08R $$ NYZ177-179-078>081-041700- LONG ISLAND NEW YORK CITY SKY/WX TMP DP RH WIND PRES REMARKS FARMINGDALE CLOUDY 79 67 66 E10 30.09R ISLIP CLOUDY 77 66 68 NE12 30.08R SHIRLEY CLOUDY 77 67 71 VRB6 30.10R WESTHAMPTON CLOUDY 79 67 66 NE13 30.11R MONTAUK POINT N/A 76 65 68 NE9G18 30.12R $$ NYZ052-065-067-041700- HUDSON VALLEY CITY SKY/WX TMP DP RH WIND PRES REMARKS WHITE PLAINS PTSUNNY 78 67 68 SE12G20 30.10R NEWBURGH PTSUNNY 77 68 73 NE9 30.13R MONTGOMERY CLOUDY 79 66 64 NE9 30.12R POUGHKEEPSIE CLOUDY 78 65 63 N5 30.11R ALBANY MOSUNNY 77 60 55 CALM 30.14S $$ NJZ001-105-106-008-010-013-015-019>022-104-041700- NEW JERSEY CITY SKY/WX TMP DP RH WIND PRES REMARKS NEWARK/LIBERTY PTSUNNY 82 69 64 NE10 30.08R TETERBORO CLOUDY 80 66 62 NE14G20 30.08R CALDWELL CLOUDY 79 66 64 E14G20 30.10R MORRISTOWN CLOUDY 82 70 65 MISG 30.09R SOMERVILLE CLOUDY 85 68 56 VRB7 30.06R SUSSEX MOSUNNY 78 65 63 NE10 30.10S ANDOVER N/A 81 67 62 CALM 30.11R TRENTON CLOUDY 81 69 67 E13 30.07R HAZE MILLVILLE SUNNY 88 66 48 E9 30.04R HX 90 ATLANTIC CITY SUNNY 87 68 52 E12 30.04 HX 90 WRIGHTSTOWN MOSUNNY 82 73 72 NE16 30.04R TOMS RIVER CLOUDY 79 70 73 NE10G20 30.08R BELMAR CLOUDY 77 66 69 NE17G23 30.09R $$ PAZ047>061-062-071-041700- EASTERN PENNSYLVANIA CITY SKY/WX TMP DP RH WIND PRES REMARKS PHILADELPHIA MOSUNNY 89 67 47 E10 30.04R HX 92 ALLENTOWN SUNNY 84 69 60 NE8G16 30.08R SCRANTON MOSUNNY 82 68 62 E5 30.10S $$ CTZ002-004>006-009-010-012-RIZ004-006-007-MAZ004-011-015-041700- SOUTHERN NEW ENGLAND IN CT CITY SKY/WX TMP DP RH WIND PRES REMARKS BRADLEY INTL MOSUNNY 78 57 48 N9 30.13S HARTFORD MOSUNNY 79 61 53 NE13 30.13R DANBURY CLOUDY 76 65 68 E8 30.13R WTRBRY/OXFORD PTSUNNY 75 63 64 NE7 30.15R BRIDGEPORT MOSUNNY 80 68 66 E18 30.10R MERIDEN MOSUNNY 82 61 48 NE9 30.12R NEW HAVEN PTSUNNY 82 65 56 SE12G18 30.10S CHESTER NOT AVBL GROTON PTSUNNY 79 64 60 NE14 30.11R WILLIMANTIC PTSUNNY 75 59 57 NE12G21 30.15R IN RI CITY SKY/WX TMP DP RH WIND PRES REMARKS PROVIDENCE MOSUNNY 76 58 53 NE13 30.15R BLOCK ISLAND PTSUNNY 73 66 78 NE13G21 30.12R WESTERLY PTSUNNY 77 61 57 NE13 30.12R IN MA CITY SKY/WX TMP DP RH WIND PRES REMARKS BOSTON CLOUDY 69 57 65 NE16 30.19R WORCESTER CLOUDY 70 53 54 NE10 30.20R WESTFIELD SUNNY 77 56 48 NE10 30.15R PROVINCETOWN N/A 72 63 73 NE14 30.17R NANTUCKET SUNNY 75 66 73 NE18 30.10R $$ ANZ330-335-338-340-345-350-353-355-041700- COASTAL MARINE OBSERVATIONS STATION/POSITION TIME SKY/WX TEMP WIND PRES VSBY WAVE AIR SEA DIR/SP/G HT/PER (UTC) (F) (DEG/KT/KT) (MB) (MI) (FT/S) NY HARB ENTRANCE 1450 75 77 60/ 21/ 25 1017.1 3/ 4 4S FIRE IS NOT AVBL 20S FIRE ISLAND 1450 74 75 60/ 21/ 25 1017.0 3/ 3 GREAT SOUTH BAY 1500 75 79 80/ 17/ 21 N/A 23SW MTP 1550 72 74 60/ 19/ 23 1017.9 4/ 5 HUDSON CANYON NOT AVBL KINGS POINT 1500 78 75 50/ 7/ 13 1017.7 EXECUTION ROCKS 1500 75 80/ 17/ 23 N/A CENTRAL LI SOUND NOT AVBL EASTERN LI SOUND 1500 74 71 60/ 12/ 16 N/A ROBBINS REEF 1500 77 40/ 17/ 19 1017.0 $$ >>>>>>>>>>>>>>>>>>>>>>>>>>>> KEY <<<<<<<<<<<<<<<<<<<<<<<<<<< > < > SKY/WX - SKY CONDITION/PRESENT WEATHER < > TMP - TEMPERATURE IN FAHRENHEIT < > DP - DEWPOINT IN FAHRENHEIT < > RH - RELATIVE HUMIDITY IN PERCENT < > WIND - DIRECTION AND SPEED IN MPH < > PRES - MEAN SEA LEVEL PRESSURE IN INCHES OF HG < > WCI - WIND CHILL INDEX < > VSB - VISIBILITY IN MILES < > HX - HEAT INDEX < > TC - TEMPERATURE IN CELSIUS < > VRB - VARIABLE WIND DIRECTION < > < >>>>>>>>>>>>>>>>>>>>>>>>>>>> KEY <<<<<<<<<<<<<<<<<<<<<<<<<<<

USA.gov is the U.S. government's official web portal to all federal, state and local government web resources and services.